• en Suisse
  • Liste des pays
  • À 7 jours
  • Température de l'eau
  • Carte satellitaire
  • Carte météo
  • Widgets météo
  • user-avatar
    Se connecter

    Météo par heure à Hahino

    Ce jour, 21 Octobre, Dimanche

    Heure Température Précipitation Vent Pression Humidité
    00:00 +5°C° 0 mm 1 m/s 764 mmHg 92%
    01:00 +5°C° 0 mm 1 m/s 764 mmHg 93%
    02:00 +5°C° 0 mm 1 m/s 764 mmHg 93%
    03:00 +5°C° 0 mm 1 m/s 764 mmHg 94%
    04:00 +5°C° 0 mm 1 m/s 764 mmHg 94%
    05:00 +4°C° 0 mm 1 m/s 764 mmHg 95%
    06:00 +4°C° 0 mm 1 m/s 764 mmHg 94%
    07:00 +5°C° 0 mm 1 m/s 765 mmHg 94%
    08:00 +5°C° 0 mm 1 m/s 765 mmHg 94%
    09:00 +6°C° 0 mm 1 m/s 765 mmHg 87%
    10:00 +8°C° 0 mm 1 m/s 765 mmHg 81%
    11:00 +9°C° 0 mm 1 m/s 765 mmHg 74%
    12:00 +9°C° 0 mm 2 m/s 765 mmHg 72%
    13:00 +9°C° 0 mm 2 m/s 765 mmHg 69%
    14:00 +10°C° 0 mm 2 m/s 765 mmHg 67%
    15:00 +8°C° 0 mm 2 m/s 765 mmHg 72%
    16:00 +7°C° 0 mm 2 m/s 765 mmHg 78%
    17:00 +6°C° 0 mm 2 m/s 764 mmHg 84%
    18:00 +6°C° 0 mm 2 m/s 764 mmHg 86%
    19:00 +5°C° 0 mm 2 m/s 764 mmHg 88%
    20:00 +4°C° 0 mm 3 m/s 764 mmHg 90%
    21:00 +4°C° 0 mm 3 m/s 764 mmHg 90%
    22:00 +4°C° 0 mm 3 m/s 763 mmHg 90%
    23:00 +4°C° 0 mm 4 m/s 763 mmHg 90%

    Demain, 22 Octobre, Lundi

    Heure Température Précipitation Vent Pression Humidité
    00:00 +4°C° 0 mm 4 m/s 763 mmHg 91%
    01:00 +4°C° 0 mm 4 m/s 762 mmHg 91%
    02:00 +4°C° 0 mm 4 m/s 762 mmHg 91%
    03:00 +5°C° 0 mm 5 m/s 761 mmHg 91%
    04:00 +5°C° 0 mm 5 m/s 761 mmHg 91%
    05:00 +5°C° 0 mm 5 m/s 760 mmHg 91%
    06:00 +5°C° 0 mm 5 m/s 760 mmHg 90%
    07:00 +6°C° 0 mm 5 m/s 759 mmHg 89%
    08:00 +5°C° 0 mm 6 m/s 759 mmHg 87%
    09:00 +7°C° 0 mm 6 m/s 758 mmHg 86%
    10:00 +7°C° 0 mm 6 m/s 758 mmHg 84%
    11:00 +8°C° 0 mm 6 m/s 757 mmHg 82%
    12:00 +8°C° 0.3 mm 6 m/s 757 mmHg 83%
    13:00 +8°C° 0.3 mm 6 m/s 756 mmHg 83%
    14:00 +8°C° 0.3 mm 6 m/s 756 mmHg 84%
    15:00 +8°C° 0.7 mm 5 m/s 755 mmHg 86%
    16:00 +8°C° 0.7 mm 5 m/s 755 mmHg 87%
    17:00 +8°C° 0.7 mm 5 m/s 755 mmHg 89%
    18:00 +8°C° 0.2 mm 4 m/s 755 mmHg 88%
    19:00 +8°C° 0.2 mm 4 m/s 755 mmHg 87%
    20:00 +7°C° 0.2 mm 4 m/s 755 mmHg 85%
    21:00 +6°C° 0 mm 4 m/s 755 mmHg 84%
    22:00 +6°C° 0 mm 4 m/s 756 mmHg 82%
    23:00 +5°C° 0 mm 3 m/s 756 mmHg 80%

    Après-demain, 23 Octobre, Mardi

    Heure Température Précipitation Vent Pression Humidité
    00:00 +4°C° 0 mm 3 m/s 756 mmHg 82%
    01:00 +3°C° 0 mm 3 m/s 756 mmHg 83%
    02:00 +3°C° 0 mm 3 m/s 756 mmHg 85%
    03:00 +2°C° 0 mm 3 m/s 755 mmHg 86%
    04:00 +2°C° 0 mm 3 m/s 755 mmHg 87%
    05:00 +2°C° 0 mm 3 m/s 754 mmHg 88%
    06:00 +2°C° 0 mm 3 m/s 754 mmHg 88%
    07:00 +2°C° 0 mm 3 m/s 753 mmHg 88%
    08:00 +2°C° 0 mm 3 m/s 753 mmHg 88%
    09:00 +3°C° 0 mm 3 m/s 752 mmHg 84%
    10:00 +4°C° 0 mm 4 m/s 751 mmHg 79%
    11:00 +5°C° 0 mm 4 m/s 751 mmHg 75%
    12:00 +6°C° 0 mm 5 m/s 749 mmHg 73%
    13:00 +6°C° 0 mm 5 m/s 748 mmHg 71%
    14:00 +5°C° 0 mm 6 m/s 746 mmHg 68%
    15:00 +5°C° 0.2 mm 6 m/s 745 mmHg 71%
    16:00 +4°C° 0.2 mm 6 m/s 743 mmHg 73%
    17:00 +4°C° 0.2 mm 7 m/s 742 mmHg 76%
    18:00 +4°C° 0.9 mm 7 m/s 740 mmHg 78%
    19:00 +4°C° 0.9 mm 7 m/s 739 mmHg 80%
    20:00 +4°C° 0.9 mm 7 m/s 737 mmHg 81%
    21:00 +4°C° 0.7 mm 6 m/s 736 mmHg 83%
    22:00 +4°C° 0.7 mm 6 m/s 735 mmHg 84%
    23:00 +3°C° 0.7 mm 5 m/s 734 mmHg 86%

    24 Octobre, Mercredi

    Heure Température Précipitation Vent Pression Humidité
    00:00 +3°C° 0.6 mm 5 m/s 733 mmHg 87%
    01:00 +4°C° 0.6 mm 4 m/s 733 mmHg 89%
    02:00 +4°C° 0.6 mm 3 m/s 732 mmHg 90%
    03:00 +4°C° 0.2 mm 3 m/s 732 mmHg 91%
    04:00 +4°C° 0.2 mm 3 m/s 731 mmHg 92%
    05:00 +4°C° 0.2 mm 3 m/s 731 mmHg 92%
    06:00 +5°C° 0.1 mm 2 m/s 731 mmHg 92%
    07:00 +5°C° 0.1 mm 2 m/s 731 mmHg 91%
    08:00 +5°C° 0.1 mm 2 m/s 731 mmHg 91%
    09:00 +6°C° 0 mm 2 m/s 731 mmHg 89%
    10:00 +6°C° 0 mm 2 m/s 731 mmHg 87%
    11:00 +7°C° 0 mm 1 m/s 731 mmHg 85%
    12:00 +8°C° 0.1 mm 1 m/s 732 mmHg 84%
    13:00 +8°C° 0.1 mm 1 m/s 732 mmHg 83%
    14:00 +7°C° 0.1 mm 2 m/s 732 mmHg 82%
    15:00 +7°C° 0.1 mm 2 m/s 733 mmHg 84%
    16:00 +6°C° 0.1 mm 2 m/s 733 mmHg 87%
    17:00 +5°C° 0.1 mm 3 m/s 734 mmHg 89%
    18:00 +5°C° 0.1 mm 3 m/s 734 mmHg 89%
    19:00 +5°C° 0.1 mm 4 m/s 735 mmHg 89%
    20:00 +5°C° 0.1 mm 4 m/s 735 mmHg 90%
    21:00 +5°C° 0.2 mm 4 m/s 736 mmHg 88%
    22:00 +3°C° 0.2 mm 5 m/s 736 mmHg 87%
    23:00 +3°C° 0.2 mm 5 m/s 737 mmHg 85%

    25 Octobre, Jeudi

    Heure Température Précipitation Vent Pression Humidité
    00:00 +3°C° 0.3 mm 5 m/s 737 mmHg 85%
    01:00 +3°C° 0.3 mm 6 m/s 738 mmHg 84%
    02:00 +3°C° 0.3 mm 6 m/s 738 mmHg 84%
    03:00 +3°C° 0.2 mm 6 m/s 738 mmHg 83%
    04:00 +3°C° 0.2 mm 6 m/s 739 mmHg 81%
    05:00 +3°C° 0.2 mm 6 m/s 739 mmHg 80%
    06:00 +3°C° 0.1 mm 6 m/s 739 mmHg 80%
    07:00 +3°C° 0.1 mm 6 m/s 739 mmHg 80%
    08:00 +3°C° 0.1 mm 6 m/s 739 mmHg 80%
    09:00 +3°C° 0.1 mm 6 m/s 739 mmHg 78%
    10:00 +3°C° 0.1 mm 6 m/s 740 mmHg 76%
    11:00 +4°C° 0.1 mm 6 m/s 740 mmHg 74%
    12:00 +5°C° 0 mm 5 m/s 740 mmHg 73%
    13:00 +5°C° 0 mm 5 m/s 740 mmHg 71%
    14:00 +5°C° 0 mm 4 m/s 740 mmHg 70%
    15:00 +5°C° 0 mm 4 m/s 740 mmHg 75%
    16:00 +4°C° 0 mm 3 m/s 740 mmHg 80%
    17:00 +4°C° 0 mm 2 m/s 740 mmHg 85%
    18:00 +3°C° 0 mm 2 m/s 740 mmHg 86%
    19:00 +3°C° 0 mm 2 m/s 739 mmHg 88%
    20:00 +3°C° 0 mm 2 m/s 739 mmHg 90%
    21:00 +3°C° 0 mm 1 m/s 739 mmHg 90%
    22:00 +3°C° 0 mm 1 m/s 739 mmHg 91%
    23:00 +3°C° 0 mm 1 m/s 739 mmHg 92%

    26 Octobre, Vendredi

    Heure Température Précipitation Vent Pression Humidité
    00:00 +3°C° 0 mm 1 m/s 740 mmHg 92%
    01:00 +3°C° 0 mm 1 m/s 740 mmHg 93%
    02:00 +3°C° 0 mm 1 m/s 740 mmHg 93%
    03:00 +3°C° 0 mm 1 m/s 740 mmHg 94%
    04:00 +3°C° 0 mm 1 m/s 740 mmHg 94%
    05:00 +2°C° 0 mm 2 m/s 740 mmHg 94%
    06:00 +2°C° 0 mm 2 m/s 741 mmHg 94%
    07:00 +2°C° 0 mm 2 m/s 741 mmHg 94%
    08:00 +2°C° 0 mm 2 m/s 741 mmHg 94%
    09:00 +3°C° 0 mm 2 m/s 741 mmHg 89%
    10:00 +4°C° 0 mm 2 m/s 742 mmHg 84%
    11:00 +5°C° 0 mm 2 m/s 742 mmHg 78%
    12:00 +4°C° 0.1 mm 3 m/s 742 mmHg 76%
    13:00 +4°C° 0.1 mm 3 m/s 742 mmHg 74%
    14:00 +5°C° 0.1 mm 3 m/s 743 mmHg 72%
    15:00 +4°C° 0 mm 3 m/s 743 mmHg 76%
    16:00 +3°C° 0 mm 3 m/s 743 mmHg 80%
    17:00 +2°C° 0 mm 3 m/s 744 mmHg 83%
    18:00 +3°C° 0 mm 2 m/s 744 mmHg 85%
    19:00 +2°C° 0 mm 2 m/s 744 mmHg 87%
    20:00 +2°C° 0 mm 2 m/s 744 mmHg 89%
    21:00 +1°C° 0 mm 2 m/s 744 mmHg 90%
    22:00 +1°C° 0 mm 2 m/s 744 mmHg 91%
    23:00 +1°C° 0 mm 2 m/s 745 mmHg 93%
    Voir plus